Belize, Belize

3:21 AM CST on December 18, 2017 (GMT -0600)
Philip S W Goldson International

Weather History for MZBZ - September, 2013

Change the Weather History Date:

Saturday, September 21, 2013

  Actual Average Record
Temperature  
Mean Temperature 84 °F -  
Max Temperature 89 °F 87 °F 91 °F (1998)
Min Temperature 78 °F 74 °F 74 °F (2012)
Cooling Degree Days 18    
Growing Degree Days 34 (Base 50)    
Moisture  
Dew Point 77 °F    
Average Humidity 79    
Maximum Humidity 100    
Minimum Humidity 61    
Precipitation  
Precipitation 0.00 in 0.34 in - ()
Sea Level Pressure  
Sea Level Pressure 29.72 in    
Wind  
Wind Speed 4 mph ()    
Max Wind Speed 14 mph    
Max Gust Speed -    
Visibility 8.1 miles    
Events Thunderstorm    
Averages and records for this station are not official NWS values.
T = Trace of Precipitation, MM = Missing Value Source: Averaged Metar Reports

Daily Weather History Graph

Daily Weather History Graph

Search for Another Location

Airport or City:

Trip Planner

Search our weather history database for the weather conditions in past years. The results will help you decide how hot, cold, wet, or windy it might be!

Date:

Astronomy

Sep. 21, 2013 Rise Set
Actual Time 5:42 AM CST 5:49 PM CST
Civil Twilight 5:20 AM CST 6:11 PM CST
Nautical Twilight 4:55 AM CST 6:36 PM CST
Astronomical Twilight 4:29 AM CST 7:02 PM CST
Moon 7:29 PM CST (9/21) 7:34 AM CST (9/21)
Length of Visible Light 12h 51m
Length of Day
12h 07m
Waning Gibbous, 94% of the Moon is Illuminated
Sep 21
Waning Gibbous
Sep 26
Last Quarter
Oct 4
New
Oct 11
First Quarter
Oct 18
Full

Hourly Weather History & Observations

Time (CST) Temp. Heat Index Dew Point Humidity Pressure Visibility Wind Dir Wind Speed Gust Speed Precip Events Conditions
3:00 AM 80 °F - 77 °F 89% 29.74 in 12 mi Calm Calm - -  
5:00 AM 80.6 °F 88.1 °F 78.8 °F 94% 29.73 in 6.2 mi Calm Calm - N/A   Mostly Cloudy
6:00 AM 78.8 °F - 78.8 °F 100% 29.73 in 6.2 mi East 3.5 mph - N/A   Mostly Cloudy
7:00 AM 82.4 °F 94.0 °F 80.6 °F 94% 29.75 in 6.2 mi East 3.5 mph - N/A   Mostly Cloudy
8:00 AM 84.2 °F 98.3 °F 80.6 °F 89% 29.83 in 6.2 mi Calm Calm - N/A   Mostly Cloudy
9:00 AM 85 °F - 79 °F 76% 29.77 in 16 mi SSE 4.6 mph - -   Partly Cloudy
9:00 AM 84.2 °F 96.1 °F 78.8 °F 84% 29.76 in 6.2 mi SSE 4.6 mph - N/A   Mostly Cloudy
10:00 AM 86.0 °F 99.3 °F 78.8 °F 79% 29.77 in 6.2 mi SE 5.8 mph - N/A   Mostly Cloudy
11:00 AM 87.8 °F 99.7 °F 77.0 °F 70% 29.76 in 6.2 mi SSE 6.9 mph - N/A   Mostly Cloudy
12:00 PM 89 °F - 78 °F 62% 29.74 in 14 mi SSE 6.9 mph - -   Partly Cloudy
12:00 PM 89.6 °F 102.2 °F 77.0 °F 66% 29.73 in 6.2 mi SSE 6.9 mph - N/A   Mostly Cloudy
1:00 PM 89.6 °F 102.2 °F 77.0 °F 66% 29.70 in 6.2 mi SSE 4.6 mph - N/A   Mostly Cloudy
2:00 PM 89.6 °F 99.8 °F 75.2 °F 62% 29.68 in 6.2 mi SE 8.1 mph - N/A   Mostly Cloudy
2:18 PM 89.6 °F 102.2 °F 77.0 °F 66% 29.68 in 6.2 mi SE 5.8 mph - N/A Thunderstorm Thunderstorm
3:00 PM 88 °F - 76 °F 61% 29.68 in 14 mi SSE 11.5 mph - - Thunderstorm Light Thunderstorm
3:00 PM 87.8 °F 99.7 °F 77.0 °F 70% 29.65 in 6.2 mi SSE 11.5 mph - N/A   Mostly Cloudy
4:00 PM 87.8 °F 99.7 °F 77.0 °F 70% 29.68 in 6.2 mi SSE 13.8 mph - N/A Thunderstorm Thunderstorm
5:00 PM 84.2 °F 94.1 °F 77.0 °F 79% 29.65 in 6.2 mi West 11.5 mph - N/A Thunderstorm Thunderstorm
6:00 PM 80 °F - 75 °F 81% 29.68 in 12 mi Calm Calm - - Thunderstorm Light Thunderstorm
6:00 PM 80.6 °F 86.2 °F 75.2 °F 84% 29.65 in 6.2 mi Calm Calm - N/A   Mostly Cloudy
9:00 PM 78 °F - 76 °F 93% 29.74 in 12 mi Calm Calm - -   Scattered Clouds
9:00 PM 78.8 °F - 77.0 °F 94% 29.74 in 6.2 mi Calm Calm - N/A   Partly Cloudy